Location: Rotheul
(50.2849°N, 11.2349°E)
Time: 06:34:15
(UTC+02:00)

ISS - Pass Details

Date: 15 July 2018
Orbit: 402 x 408 km, 51.6° (Epoch: 18 July)

Event Time Altitude Azimuth Distance (km) Brightness Sun altitude
Exits shadow 01:49:52 60° 157° (SSE) 472 -3.9 -17.9°
Drops below altitude 10° 01:53:07 10° 77° (ENE) 1,471 -0.7 -17.8°
Sets 01:55:13 0° 74° (ENE) 2,334 0.4 -17.8°
